This is the latest recevied weather packets stored in our database for station/object K4AMF. If no packets are shown the sender has not sent any weather packets the latest 1 day(s).
| Time | Temp. | Humidity | Pressure | Rain* | Wind** | Luminosity | Snow |
|---|---|---|---|---|---|---|---|
| 1778030268 | 22.22° C | 69% | 1016.8 hPa | 0 mm | 1.34 m/s, 142° | 0 W/m² | - |
| 1778029964 | 22.22° C | 69% | 1016.8 hPa | 0 mm | 1.79 m/s, 148° | 0 W/m² | - |
| 1778029663 | 22.22° C | 69% | 1016.8 hPa | 0 mm | 1.79 m/s, 162° | 0 W/m² | - |
| 1778029360 | 22.78° C | 69% | 1016.9 hPa | 0 mm | 0.45 m/s, 97° | 0 W/m² | - |
| 1778029057 | 22.78° C | 68% | 1016.9 hPa | 0 mm | 1.79 m/s, 147° | 0 W/m² | - |
| 1778028753 | 22.78° C | 68% | 1016.9 hPa | 0 mm | 1.79 m/s, 142° | 0 W/m² | - |
| 1778028449 | 22.78° C | 67% | 1016.8 hPa | 0 mm | 2.68 m/s, 124° | 0 W/m² | - |
| 1778028147 | 22.78° C | 67% | 1016.7 hPa | 0 mm | 1.79 m/s, 119° | 0 W/m² | - |
| 1778027843 | 22.78° C | 67% | 1016.8 hPa | 0 mm | 2.68 m/s, 126° | 0 W/m² | - |
| 1778027540 | 22.78° C | 66% | 1016.8 hPa | 0 mm | 1.34 m/s, 57° | 0 W/m² | - |
| 1778027235 | 22.78° C | 66% | 1016.9 hPa | 0 mm | 1.34 m/s, 111° | 0 W/m² | - |
| 1778026932 | 22.78° C | 66% | 1016.9 hPa | 0 mm | 1.79 m/s, 119° | 0 W/m² | - |
| 1778026628 | 22.78° C | 66% | 1016.9 hPa | 0 mm | 4.92 m/s, 128° | 0 W/m² | - |
| 1778026326 | 23.33° C | 65% | 1016.5 hPa | 0 mm | 1.34 m/s, 140° | 0 W/m² | - |
| 1778026022 | 23.33° C | 65% | 1016.4 hPa | 0 mm | 0.45 m/s, 96° | 1 W/m² | - |
| 1778025720 | 23.33° C | 65% | 1016.3 hPa | 0 mm | 1.34 m/s, 132° | 3 W/m² | - |
| 1778025417 | 23.33° C | 64% | 1016.2 hPa | 0 mm | 0.89 m/s, 24° | 8 W/m² | - |
| 1778025115 | 23.33° C | 63% | 1016.2 hPa | 0 mm | 2.24 m/s, 121° | 11 W/m² | - |
| 1778024811 | 23.89° C | 63% | 1016.3 hPa | 0 mm | 1.79 m/s, 139° | 15 W/m² | - |
| 1778024509 | 23.89° C | 62% | 1016.5 hPa | 0 mm | 1.79 m/s, 70° | 20 W/m² | - |
| 1778024205 | 23.89° C | 61% | 1016.4 hPa | 0 mm | 0.45 m/s, 38° | 26 W/m² | - |
| 1778023903 | 23.89° C | 60% | 1016.2 hPa | 0 mm | 1.34 m/s, 16° | 32 W/m² | - |
| 1778023600 | 23.89° C | 59% | 1016.4 hPa | 0 mm | 0.89 m/s, 88° | 32 W/m² | - |
| 1778023298 | 24.44° C | 59% | 1016.4 hPa | 0 mm | 2.24 m/s, 148° | 33 W/m² | - |
| 1778022994 | 24.44° C | 59% | 1016.2 hPa | 0 mm | 0.89 m/s, 111° | 32 W/m² | - |
* Rain latest hour (hover to see other rain measurements)
** Current wind speed in m/s (hover to see current wind gust speed)